User: anonymous   Login
Location: Unspecified
(0.0000°N, 0.0000°E)
Time: 20:59:22
(UTC+00:00)
Language:

FALCON 9 R/B - Orbit

View from above orbital plane
View from above orbital plane
View from above satellite
View from above satellite

Ground track
Ground track

The orbit data is extracted from the following two-line orbital elements,

1 37253U 10066K   18172.86223164  .00002601  00000-0  18636-3 0  9990
2 37253  34.5228 157.8782 4276964 285.5490  32.2690  6.92488095186148
Epoch (UTC): 21 June 2018 20:41:36
Eccentricity: 0.4276964
inclination: 34.5228°
perigee height: 276 km
apogee height: 10221 km
right ascension of ascending node: 157.8782°
argument of perigee: 285.5490°
revolutions per day: 6.92488095
mean anomaly at epoch: 32.2690°
orbit number at epoch: 18614

The dashed part of the orbit path shows where the satellite is in the earth's shadow,  

DLR